User: anonymous   Login
Location: Casteau
(50.5142°N, 4.0161°E)
Time: 18:15:32
(UTC+00:00)
Language:

S-56A Canister/Altair - Orbit

View from above orbital plane
View from above orbital plane
View from above satellite
View from above satellite

Ground track
Ground track

The orbit data is extracted from the following two-line orbital elements,

1 00082U 61004B   21208.73205748 -.00000123  00000-0 -75096-4 0  9999
2 00082  38.8625 137.6824 1176580 239.5891 108.3389 12.26029349857550
Epoch (UTC): 27 July 2021 17:34:09
Eccentricity: 0.1176580
inclination: 38.8625°
perigee height: 631 km
apogee height: 2501 km
right ascension of ascending node: 137.6824°
argument of perigee: 239.5891°
revolutions per day: 12.26029349
mean anomaly at epoch: 108.3389°
orbit number at epoch: 85755

The dashed part of the orbit path shows where the satellite is in the earth's shadow,  

DLR